Location: *
(58.7167°N, 26.1833°E)
Time: 19:17:59
(UTC+00:00)

Cosmos 1626 - Pass Details

Date: 25 August 2019
Orbit: 493 x 495 km, 82.5° (Epoch: 15 October)

Event Time Altitude Azimuth Distance (km) Brightness Sun altitude
Rises 21:32:37 0° 350° (N) 2,597 7.4 -20.1°
Reaches altitude 10° 21:34:52 10° 360° (N) 1,708 6.0 -20.1°
Maximum altitude 21:38:20 35° 67° (ENE) 828 3.3 -20.2°
Enters shadow 21:39:04 31° 93° (E) 887 3.2 -20.2°
